OpenBCM V1.07b12 (Linux)

Packet Radio Mailbox

DB0FHN

[JN59NK Nuernberg]

 Login: GUEST





  
CX2SA  > KEPS     14.02.25 02:33l 335 Lines 15859 Bytes #999 (0) @ AMSAT
BID : ORB25045.1
Read: DJ6UX GUEST
Subj: 2Line Orbital Elements 25045.AMSAT
Path: DB0FHN<DB0LHR<OK1TOR<OE2XZR<OE6XPE<DB0ERF<IZ3LSV<I0OJJ<VK2RZ<LU9DCE<
      EA2RCF<CX2SA
Sent: 250214/0024Z @:CX2SA.SAL.URY.SOAM #:48173 [Salto] FBB7.00e $:ORB25045.1

>From cx2sa%cx2sa.sal.ury.soam@i0ojj.ampr.org Fri Feb 14 01:27:24 2025
Received: from i0ojj.ampr.org by i0ojj.ampr.org (JNOS2.0p.6) with SMTP
	id AA17020976 ; Fri, 14 Feb 2025 01:27:24 +0100
Message-Id: <ORB25045.1@vk2rz.bbs>
>From: cx2sa@cx2sa.sal.ury.soam
X-JNOS-User-Port: Circuit  (2RZBBS:VK2RZ-1 VK2RZ-1)  -> Sending message

From: CX2SA@CX2SA.SAL.URY.SOAM
To  : KEPS@AMSAT


QST de W1STR

AMSAT Orbital Elements for Amateur Satellites in TLE Format
>From Orbital Analysis Office
New England Sci-Tech STEM Education Center
Natick, MA February 14, 2025
To all radio amateurs


These element sets describe the orbits of various satellites
in use by the amateur radio community. For details see:
www.amsat.org/keplerian-elements-formats/

A daily update of element sets is available at:
www.amsat.org/tle/daily-bulletin.txt
or without bulletin text:
www.amsat.org/tle/dailytle.txt


AO-07
1 07530U 74089B   25044.48005104 -.00000034  00000-0  75804-4 0  9996
2 07530 101.9938  47.5073 0012113 345.0097 169.7202 12.53686193299270
UO-11
1 14781U 84021B   25044.48616209  .00002473  00000-0  27066-3 0  9997
2 14781  97.7397  13.3066 0008112  13.1195 347.0231 14.88681654184369
AO-27
1 22825U 93061C   25044.75964959  .00000238  00000-0  10824-3 0  9998
2 22825  98.7541 105.6549 0009506  92.7299 267.4972 14.30727900637425
FO-29
1 24278U 96046B   25044.30265311  .00000004  00000-0  43952-4 0  9995
2 24278  98.5874 313.4332 0348959 283.8588  72.3965 13.53236878407048
NOAA-15
1 25338U 98030A   25044.76255419  .00000310  00000-0  14546-3 0  9992
2 25338  98.5483  72.6140 0009822 344.3236  15.7639 14.26882125391885
GO-32
1 25397U 98043D   25044.84983228  .00000202  00000-0  10750-3 0  9999
2 25397  98.9574  21.6370 0001613 141.6958 218.4335 14.24252692382033
ISS
1 25544U 98067A   25044.58106731  .00014347  00000-0  25813-3 0  9997
2 25544  51.6360 199.2431 0004086 311.6218  48.4420 15.50080818495996
NO-44
1 26931U 01043C   25044.47106788  .00000353  00000-0  16343-3 0  9996
2 26931  67.0500  68.0189 0006024 264.0741  95.9674 14.31616416220488
SO-50
1 27607U 02058C   25044.57092438  .00002398  00000-0  32302-3 0  9995
2 27607  64.5532 198.4630 0042371   3.3952 356.7432 14.80941098192049
CO-55
1 27844U 03031E   25044.73708061  .00000651  00000-0  30339-3 0  9992
2 27844  98.6790  54.4997 0010086 157.8370 202.3247 14.23817129122182
CO-57
1 27848U 03031J   25044.49161865  .00000543  00000-0  25940-3 0  9996
2 27848  98.6816  54.3487 0009656 174.8003 185.3277 14.23177768121855
RS-22
1 27939U 03042A   25044.79043822  .00002269  00000-0  37151-3 0  9998
2 27939  98.3135 211.5583 0011906  21.3603  91.8022 14.71753962143799
NOAA-18
1 28654U 05018A   25044.75128042  .00000355  00000-0  21187-3 0  9998
2 28654  98.8515 125.5038 0015179  98.8111 261.4781 14.13514173 17386
CO-58
1 28895U 05043F   25044.37857500  .00003099  00000-0  52282-3 0  9997
2 28895  98.2290 187.4676 0014197 317.6312  42.3796 14.70148054 29868
CO-65
1 32785U 08021C   25044.53550292  .00009321  00000-0  71163-3 0  9998
2 32785  97.7690  15.1046 0009036 243.4149 116.6150 15.02171698911648
AAUSAT2
1 32788U 08021F   25044.50731412  .00092056  00000-0  17695-2 0  9999
2 32788  97.6059  36.1420 0006992  77.4959 282.7072 15.47577208915211
CO-66
1 32791U 08021J   25044.45019485  .00016360  00000-0  90665-3 0  9999
2 32791  97.7182  22.3552 0004080 169.4392 190.6925 15.13872206912899
RS-30
1 32953U 08025A   25044.75321049  .00000043  00000-0  23970-3 0  9994
2 32953  82.5037 299.2365 0018928 300.5368  59.3843 12.43158660759142
NOAA-19
1 33591U 09005A   25044.80962972  .00000315  00000-0  19238-3 0  9998
2 33591  99.0137 108.7950 0013175 334.2328  25.8186 14.13283940825756
SRMSAT
1 37841U 11058D   25044.57392606  .00000580  00000-0  17158-3 0  9999
2 37841  19.9711 136.5135 0011565 228.8365 158.9815 14.11360023688706
ZACUBE-1
1 39417U 13066B   25044.38756321  .00007169  00000-0  65404-3 0  9995
2 39417  97.7665   2.2765 0048004  80.3558 280.3080 14.94504705607545
Delfi-N3xt
1 39428U 13066N   25044.49760066  .00012359  00000-0  13368-2 0  9998
2 39428  97.8381 323.6595 0090431  23.3997 337.1293 14.85426944601829
GOMX-1
1 39430U 13066Q   25044.69245508  .00003632  00000-0  57773-3 0  9995
2 39430  97.6994 270.4120 0133642 202.6544 156.8729 14.66790111598414
LO-74
1 39440U 13066AA  25044.36651195  .00005378  00000-0  56888-3 0  9998
2 39440  97.8387 349.9571 0063469 201.6022 158.2516 14.88121297604149
AO-73
1 39444U 13066AE  25044.42048316  .00011466  00000-0  92786-3 0  9996
2 39444  97.7497   6.3441 0043475  57.7714 302.7711 14.99166098606164
DTUSAT-2
1 40030U 14033W   25044.42771286  .00010404  00000-0  72986-3 0  9994
2 40030  98.0436  10.9574 0012364  92.5799 267.6842 15.05316398578907
EO-80
1 40032U 14033Y   25044.45444689  .00011783  00000-0  82430-3 0  9999
2 40032  98.0307  10.7962 0010264  42.9109 317.2915 15.05404339578889
XW-2C
1 40906U 15049H   25044.79158029  .01640689  24448-2  11731-2 0  9997
2 40906  97.4368  80.5042 0003951 186.8743 173.2490 16.16669171522179
LILACSAT-2
1 40908U 15049K   25044.86116040  .00015748  00000-0  46786-3 0  9990
2 40908  97.5158  62.6689 0009139 204.0546 156.0271 15.34821728520457
IO-86
1 40931U 15052B   25038.81889873  .00001817  00000-0  15548-3 0  9993
2 40931   6.0001 108.1159 0012838 187.7041 172.2889 14.78568669506492
Horyu-4
1 41340U 16012D   25044.55604277  .00027813  00000-0  93948-3 0  9990
2 41340  30.9983 188.1740 0005955 302.4902  57.5165 15.29455017494969
Lapan A3
1 41603U 16040E   25044.81439573  .00005300  00000-0  19346-3 0  9994
2 41603  97.1391  54.0504 0010184 331.6016  28.4669 15.28490930480095
CAS-2T
1 41847U 16066G   25044.48914960  .00002977  00000-0  43258-3 0  9999
2 41847  98.4323 119.9473 0348507 169.4071 191.4713 14.42916652434270
CAS-4B
1 42759U 17034B   25044.81118374  .00044660  00000-0  85059-3 0  9990
2 42759  43.0109 283.6745 0017126 207.3810 152.6147 15.47317936424573
CAS-4A
1 42761U 17034D   25044.84135251  .00047675  00000-0  89201-3 0  9991
2 42761  43.0146 281.4525 0018527 213.6329 146.3356 15.47776354424597
TechnoSat
1 42829U 17042E   25044.52523968  .00004996  00000-0  40250-3 0  9996
2 42829  97.3890 218.8524 0011974 326.3181  33.7281 15.00299138413313
AO-91
1 43017U 17073E   25044.58070404  .00013456  00000-0  73040-3 0  9992
2 43017  97.5491 278.3718 0181315 200.9585 158.4143 15.01583898391788
S-Net D
1 43186U 18014G   25044.27266152  .00007993  00000-0  49871-3 0  9992
2 43186  97.5741 308.4542 0007655 264.0910  95.9447 15.09756047384814
S-Net B
1 43187U 18014H   25044.47553078  .00008308  00000-0  51829-3 0  9998
2 43187  97.5744 308.6204 0008447 257.8237 102.2046 15.09744137384844
S-Net A
1 43188U 18014J   25044.47224337  .00008165  00000-0  50915-3 0  9998
2 43188  97.5754 308.7526 0008279 258.5499 101.4801 15.09763779384848
S-Net C
1 43189U 18014K   25044.47766685  .00008202  00000-0  51158-3 0  9998
2 43189  97.5769 308.7522 0009987 249.9529 110.0625 15.09741155383399
Ten-Koh
1 43677U 18084G   25044.53252760  .00005184  00000-0  42846-3 0  9998
2 43677  98.0835 212.1930 0010809 294.4602  65.5492 14.99371548342848
PO-101
1 43678U 18084H   25044.82201586  .00004264  00000-0  37296-3 0  9992
2 43678  98.0927 216.6536 0007505 318.6843  41.3810 14.97296765343052
QO-100
1 43700U 18090A   25044.54705024  .00000138  00000-0  00000-0 0  9996
2 43700   0.0141 104.9624 0001324 238.3878  23.1498  1.00274328 22779
MinXSS-2
1 43758U 18099A   25044.18450048  .00019131  00000-0  88607-3 0  9996
2 43758  97.5193 110.1954 0013011 201.2245 158.8452 15.20071846339255
AO-95
1 43770U 18099N   25044.12674933  .00011560  00000-0  64442-3 0  9994
2 43770  97.5101 103.6631 0010477 254.3204 105.6872 15.13700447338910
RANGE-A
1 43773U 18099R   25044.10278996  .00006692  00000-0  44806-3 0  9996
2 43773  97.4661  95.9087 0010859 227.2688 132.7627 15.07183362338665
MOVE-II
1 43780U 18099Y   25044.55356187  .00077947  00000-0  18334-2 0  9999
2 43780  97.4837 114.7419 0004166 207.2695 152.8333 15.41684779339751
SNUSat 2
1 43782U 18099AA  25044.56296932  .00011852  00000-0  69912-3 0  9995
2 43782  97.4787 101.7410 0012640 189.4916 170.6077 15.11638401338959
SnugLite
1 43784U 18099AC  25044.11475594  .00012096  00000-0  66926-3 0  9994
2 43784  97.4595 100.6737 0003634 182.8204 177.3008 15.13996231338990
ITASat 1
1 43786U 18099AE  25044.12336548  .00008162  00000-0  49965-3 0  9995
2 43786  97.4750 101.1296 0014005 245.8476 114.1289 15.10379087338863
EAGLET 1
1 43790U 18099AJ  25044.38706951  .00005859  00000-0  39146-3 0  9997
2 43790  97.4937 101.6653 0011689 223.5873 136.4432 15.07307988338556
ESEO
1 43792U 18099AL  25044.50455566  .00002814  00000-0  22012-3 0  9998
2 43792  97.4602  96.5321 0010506 186.4316 173.6776 15.01789417338398
CSIM
1 43793U 18099AM  25044.60491140  .00086322  00000-0  20228-2 0  9990
2 43793  97.5013 116.7697 0007337 185.0785 175.0388 15.41744185339607
JO-97
1 43803U 18099AX  25044.11340335  .00015095  00000-0  77593-3 0  9994
2 43803  97.4848 104.4566 0008105 184.6193 175.4967 15.16533918339097
Suomi 100
1 43804U 18099AY  25044.42573558  .00013310  00000-0  71923-3 0  9993
2 43804  97.4917 104.3368 0013255 186.5932 173.5127 15.14746825339096
ISAT
1 43879U 18111D   25044.49367920  .00023702  00000-0  10060-2 0  9991
2 43879  97.6047 316.8359 0007854 238.4201 121.6269 15.23064190335981
UWE-4
1 43880U 18111E   25044.28330343  .00018657  00000-0  85633-3 0  9991
2 43880  97.5983 315.7984 0011158 254.8406 105.1595 15.20410927335927
Sparrow
1 43881U 18111F   25044.49112611  .00024612  00000-0  10178-2 0  9990
2 43881  97.6171 319.3108 0005556 294.2171  65.8485 15.23950820336068
